Bradshaw AFB, HI

11:39 PM HST on July 24, 2017 (GMT -1000)
Bradshaw Army Air Field

Weather History for PHSF - July, 2014

Change the Weather History Date:

Thursday, July 3, 2014

  Actual Average Record
Temperature  
Mean Temperature 64 °F -  
Max Temperature 78 °F 70 °F 80 °F (2017)
Min Temperature 50 °F 52 °F 46 °F (2017)
Degree Days  
Heating Degree Days 1    
Growing Degree Days 14 (Base 50)    
Moisture  
Dew Point 48 °F    
Average Humidity 69    
Maximum Humidity 100    
Minimum Humidity 20    
Precipitation  
Precipitation 0.00 in - - ()
Sea Level Pressure  
Sea Level Pressure 30.17 in    
Wind  
Wind Speed 6 mph (South)    
Max Wind Speed 21 mph    
Max Gust Speed 34 mph    
Visibility 9 miles    
Events Fog    
Averages and records for this station are not official NWS values.
T = Trace of Precipitation, MM = Missing Value Source: NWS Daily Summary

Daily Weather History Graph

Daily Weather History Graph

Search for Another Location

Airport or City:

Trip Planner

Search our weather history database for the weather conditions in past years. The results will help you decide how hot, cold, wet, or windy it might be!

Date:

Astronomy

Jul. 03, 2014 Rise Set
Actual Time 5:47 AM HST 7:05 PM HST
Civil Twilight 5:23 AM HST 7:29 PM HST
Nautical Twilight 4:54 AM HST 7:58 PM HST
Astronomical Twilight 4:24 AM HST 8:28 PM HST
Moon 11:07 AM HST (7/3) 11:26 PM HST (7/3)
Length of Visible Light 14h 06m
Length of Day
13h 17m
Waxing Crescent, 35% of the Moon is Illuminated
Jul 3
Waxing Crescent
Jul 5
First Quarter
Jul 12
Full
Jul 18
Last Quarter
Jul 26
New

Hourly Weather History & Observations

Time (HST) Temp. Dew Point Humidity Pressure Visibility Wind Dir Wind Speed Gust Speed Precip Events Conditions
12:56 AM 56.3 °F 52.2 °F 86% 29.98 in 12.0 mi SE 5.8 mph - N/A   Mostly Cloudy
1:21 AM 55.4 °F 51.8 °F 88% 30.35 in 12.0 mi Calm Calm - N/A   Mostly Cloudy
1:26 AM 55.4 °F 51.8 °F 88% 30.34 in 12.0 mi SSE 2.3 mph - N/A   Scattered Clouds
1:31 AM 55.4 °F 51.8 °F 88% 30.34 in 12.0 mi SSE 2.3 mph - N/A   Mostly Cloudy
1:46 AM 55.4 °F 51.8 °F 88% 30.33 in 11.0 mi ESE 4.6 mph - N/A   Mostly Cloudy
1:56 AM 55.8 °F 52.0 °F 87% 29.96 in 12.0 mi SE 3.5 mph - N/A   Overcast
2:11 AM 55.4 °F 50.0 °F 82% 30.32 in 12.0 mi North 5.8 mph - N/A   Mostly Cloudy
2:21 AM 55.4 °F 51.8 °F 88% 30.32 in 12.0 mi WSW 4.6 mph - N/A   Scattered Clouds
2:56 AM 53.1 °F 47.7 °F 82% 29.96 in 12.0 mi NNW 3.5 mph - N/A   Clear
3:56 AM 50.2 °F 44.8 °F 82% 29.98 in 12.0 mi ESE 3.5 mph - N/A   Clear
4:56 AM 56.5 °F 40.6 °F 55% 29.96 in 12.0 mi NW 3.5 mph 24.2 mph N/A   Clear
5:56 AM 55.0 °F 43.2 °F 64% 29.99 in 11.0 mi ESE 8.1 mph 18.4 mph N/A   Clear
6:56 AM 56.8 °F 37.8 °F 49% 30.03 in 12.0 mi North 2.3 mph - N/A   Clear
7:56 AM 62.8 °F 46.4 °F 55% 30.04 in 12.0 mi NNW 5.8 mph - N/A   Clear
8:56 AM 66.7 °F 48.6 °F 52% 30.02 in 12.0 mi WSW 3.5 mph - N/A   Clear
9:56 AM 68.9 °F 54.0 °F 59% 30.01 in 12.0 mi WNW 8.1 mph - N/A   Clear
10:56 AM 71.1 °F 53.6 °F 54% 30.00 in 11.0 mi West 9.2 mph 21.9 mph N/A   Partly Cloudy
11:56 AM 75.2 °F 34.9 °F 23% 29.99 in 11.0 mi SSE 13.8 mph 25.3 mph N/A   Partly Cloudy
12:33 PM 75.2 °F 32.0 °F 21% 30.37 in 10.0 mi SSE 18.4 mph 34.5 mph N/A   Clear
12:56 PM 77.5 °F 32.9 °F 20% 29.98 in 7.0 mi SSE 9.2 mph 23.0 mph N/A   Clear
1:43 PM 75.2 °F 35.6 °F 24% 30.35 in 11.0 mi ESE 16.1 mph 31.1 mph N/A   Partly Cloudy
1:56 PM 77.5 °F 34.2 °F 21% 29.97 in 10.0 mi SSE 13.8 mph 29.9 mph N/A   Clear
2:23 PM 77.0 °F 35.6 °F 22% 30.33 in 11.0 mi SE 20.7 mph 31.1 mph N/A   Partly Cloudy
2:34 PM 78.8 °F 35.6 °F 21% 30.34 in 12.0 mi ESE 18.4 mph 31.1 mph N/A   Partly Cloudy
2:56 PM 77.7 °F 36.3 °F 22% 29.98 in 12.0 mi SE 10.4 mph 27.6 mph N/A   Clear
3:56 PM 71.1 °F 56.1 °F 59% 30.01 in 10.0 mi West 13.8 mph 21.9 mph N/A   Clear
4:56 PM 68.2 °F 56.3 °F 66% 30.00 in 12.0 mi West 10.4 mph - N/A   Clear
5:56 PM 65.8 °F 57.0 °F 73% 30.03 in 11.0 mi West 8.1 mph - N/A   Clear
6:56 PM 61.9 °F 57.6 °F 86% 30.04 in 12.0 mi West 6.9 mph - N/A   Clear
7:56 PM 59.2 °F 55.6 °F 88% 30.07 in 11.0 mi West 2.3 mph - N/A   Clear
8:06 PM 57.2 °F 55.4 °F 94% 30.40 in 1.8 mi West 2.3 mph - N/A   Clear
8:16 PM 57.2 °F 55.4 °F 94% 30.41 in 2.2 mi WSW 1.2 mph - N/A   Clear
8:21 PM 57.2 °F 55.4 °F 94% 30.41 in 5.0 mi WSW 2.3 mph - N/A   Clear
8:26 PM 57.2 °F 57.2 °F 100% 30.42 in 2.5 mi West 1.2 mph - N/A   Partly Cloudy
8:31 PM 57.2 °F 57.2 °F 100% 30.42 in 1.9 mi North 2.3 mph - N/A   Scattered Clouds
8:41 PM 57.2 °F 57.2 °F 100% 30.42 in 1.1 mi North 2.3 mph - N/A   Mostly Cloudy
8:46 PM 57.2 °F 57.2 °F 100% 30.42 in 0.8 mi WNW 1.2 mph - N/A   Mostly Cloudy
8:56 PM 57.2 °F 56.3 °F 97% 30.06 in 0.3 mi West 1.2 mph - N/A Fog Fog
9:26 PM 55.4 °F 55.4 °F 100% 30.42 in 5.0 mi ESE 4.6 mph - N/A Fog Fog
9:31 PM 55.4 °F 55.4 °F 100% 30.43 in 8.0 mi ESE 5.8 mph - N/A   Scattered Clouds
9:56 PM 54.7 °F 47.8 °F 78% 30.08 in 11.0 mi ESE 2.3 mph - N/A   Clear
10:56 PM 53.4 °F 39.7 °F 60% 30.06 in 12.0 mi ESE 4.6 mph - N/A   Clear
11:56 PM 52.9 °F 28.0 °F 38% 30.05 in 12.0 mi ESE 4.6 mph - N/A   Clear